Location: Arezzo
(43.4170°N, 11.8830°E)
Time: 11:28:56
(UTC+02:00)

STARLINK-2647 - Visible Passes

Search period start: 28 October 2021 00:00
Search period end: 06 November 2021 23:00
Orbit: 546 x 548 km, 53.1° (Epoch: 27 October)

Date Brightness Start Highest point End Pass type
(mag) Time Alt. Az. Time Alt. Az. Time Alt. Az.
28 Oct 5.6 05:34:25 18° S 05:36:23 26° SE 05:39:49 10° ENE visible
28 Oct 3.8 07:11:36 10° WSW 07:15:40 57° NNW 07:19:44 10° NE visible
29 Oct 4.9 05:29:12 31° SSE 05:29:59 34° SE 05:33:43 10° ENE visible
29 Oct 4.0 07:05:26 10° WSW 07:09:24 46° NNW 07:13:25 10° NE visible
30 Oct 4.5 05:23:48 44° SE 05:23:48 44° SE 05:27:32 10° ENE visible
30 Oct 4.3 06:59:26 11° W 07:03:10 39° NNW 07:07:03 10° NE visible
31 Oct 4.7 04:18:13 44° E 04:18:13 44° E 04:21:16 10° ENE visible
31 Oct 4.5 05:53:51 14° W 05:56:55 33° NNW 06:00:41 10° NE visible
01 Nov 5.1 04:12:30 34° ENE 04:12:30 34° ENE 04:14:56 10° ENE visible
01 Nov 4.7 05:48:08 16° WNW 05:50:39 29° NNW 05:54:19 10° NE visible
02 Nov 5.6 04:06:41 26° NE 04:06:41 26° NE 04:08:34 10° NE visible
02 Nov 4.9 05:42:17 18° WNW 05:44:25 26° NNW 05:47:56 10° NE visible
03 Nov 6.0 04:00:46 20° NE 04:00:46 20° NE 04:02:10 10° NE visible
03 Nov 5.1 05:36:22 18° NW 05:38:09 24° NNW 05:41:34 10° NE visible
04 Nov 6.3 03:54:46 16° NE 03:54:46 16° NE 03:55:43 10° NE visible
04 Nov 5.2 05:30:22 19° NW 05:31:53 23° N 05:35:12 10° NE visible
05 Nov 6.5 03:48:43 13° NE 03:48:43 13° NE 03:49:16 10° NE visible
05 Nov 5.2 05:24:19 19° NNW 05:25:37 22° N 05:28:52 10° NE visible
06 Nov 6.7 03:42:37 11° NE 03:42:37 11° NE 03:42:48 10° NE visible
06 Nov 5.3 05:18:13 19° NNW 05:19:20 21° N 05:22:32 10° NE visible
